Flag for Canada Weather past 2 weeks in Resolute Bay, Nunavut, Canada

Now
39 °F

Light rain. More clouds than sun.


Feels Like: 28 °F
Forecast: 40 / 44 °F
Wind: 29 mph from Southeast

Location: Resolute

Current Time: Jul 6, 2015 at 9:27:38 AM

Latest Report: Jul 6, 2015 at 8:00 AM


Visibility: 9 mi

Pressure: 29.92 "Hg

Humidity: 100%

Dew point: 39 °F

Location of Resolute BayLocation

Historic Weather in Resolute Bay — Graph

°F

Resolute Bay temperature yesterday

Maximum temperature yesterday: 43 °F (at 1:00 PM)
Minimum temperature yesterday: 37 °F (at 12:00 AM)
Average temperature yesterday: 40 °F

Past Weeks' High & Low Weather Summary

 TemperatureHumidityPressure
High54 °F (Jun 30, 12:00 PM)100% (Jul 5, 7:00 PM)30.14 "Hg (Jul 5, 7:00 PM)
Low34 °F (Jun 22, 1:00 AM)38% (Jun 29, 1:00 PM)29.59 "Hg (Jun 24, 5:00 AM)
Average42 °F75%29.91 "Hg
* Reported Jun 21 8:00 AM — Jul 6 8:00 AM, Resolute Bay, Weather by CustomWeather, © 2015

Note: Actual official high and low records may vary slightly from our data, if they occured in-between our weather recording intervals... More about our weather records

Advertising

Resolute Bay weather history for previous 24 hours

 ConditionsComfort  
Time TempWeatherWind HumidityBarometerVisibility
8:00 AM
Mon, Jul 6
39 °FLight rain. More clouds than sun.29 mph100%29.92 "Hg9 mi
7:00 AM39 °FLight rain. More clouds than sun.24 mph93%29.92 "Hg9 mi
6:00 AM37 °FLight rain. More clouds than sun.24 mph100%29.90 "Hg8 mi
5:00 AM37 °FLight rain. Fog.22 mph100%29.89 "Hg8 mi
4:00 AM37 °FLight rain. Fog.24 mph100%29.87 "Hg5 mi
3:00 AM37 °FLight rain. Fog.23 mph93%29.86 "Hg4 mi
2:49 AM37 °FLight rain. Fog.24 mph93%29.85 "Hg4 mi
2:00 AM39 °FLight rain. Fog.29 mph93%29.83 "Hg8 mi
1:00 AM39 °FLight rain. Fog.30 mph93%29.81 "Hg7 mi
12:47 AM39 °FChilly.36 mph93%29.81 "Hg7 mi
12:00 AM39 °FLight rain. Fog.33 mph93%29.80 "Hg7 mi
11:00 PM
Sun, Jul 5
41 °FRain. Fog.36 mph93%29.81 "Hg7 mi
10:00 PM39 °FLight rain. Fog.30 mph100%29.83 "Hg7 mi
9:45 PM39 °FLight rain. Fog.31 mph100%29.83 "Hg7 mi
9:00 PM39 °FLight rain. Fog.29 mph100%29.83 "Hg7 mi
8:00 PM39 °FLight rain. Fog.35 mph100%29.83 "Hg3 mi
7:00 PM39 °FLight rain. Low clouds.37 mph100%29.83 "Hg4 mi
6:00 PM41 °FLight rain. Low clouds.41 mph93%29.83 "Hg6 mi
5:00 PM41 °FLight rain. Overcast.40 mph93%29.84 "Hg6 mi
4:00 PM43 °FLight rain. Overcast.37 mph93%29.86 "Hg6 mi
3:00 PM43 °FLight rain. Overcast.29 mph93%29.88 "Hg6 mi
2:00 PM43 °FLight rain. Overcast.25 mph93%29.89 "Hg8 mi
1:00 PM43 °FLight rain. Overcast.24 mph93%29.90 "Hg8 mi
12:00 PM41 °FLight rain. Overcast.20 mph93%29.89 "Hg15 mi
11:00 AM41 °FOvercast.18 mph81%29.90 "Hg15 mi
10:00 AM41 °FCloudy.22 mph81%29.88 "Hg15 mi
9:00 AM39 °FOvercast.23 mph81%29.89 "Hg15 mi
Weather by CustomWeather, © 2015

See weather overviewHow to use our weather pages